Location: Patterson (historical)
(35.1418°N, 90.5529°W)
Time: 18:43:18
(UTC+00:00)

Cosmos 1354 Rocket - Pass Details

Date: 11 December 2025
Orbit: 761 x 778 km, 74.0° (Epoch: 20 January)

Event Time Altitude Azimuth Distance (km) Brightness Sun altitude
Rises 23:07:23 0° 194° (SSW) 3,234 7.9 -3.9°
Reaches altitude 10° 23:09:45 10° 193° (SSW) 2,308 7.1 -4.3°
Maximum altitude 23:15:00 84° 107° (ESE) 778 4.0 -5.3°
Drops below altitude 10° 23:20:15 10° 19° (NNE) 2,311 6.1 -6.3°
Sets 23:22:38 0° 19° (NNE) 3,238 6.8 -6.7°
